ARIANE 2 DEB, 33551

Orbit data source: Space-Track

ARIANE 2 DEB, 33551 is space debris in HEO originally from a launch on Fri, 27 Jan 1989 UTC launched from the French Guiana (FRGUI). Debris objects in space refer to the collection of defunct objects orbiting the Earth. Examples of debris include non-operational satellites, rocket bodies, and fragments generated from explosions, collisions, or faulty payload assembly.

Loading next visibility...
Identifier
33551, 1989-006AT
Orbit
HEO
Country
Flag of FRFR
Related business
Manufacturer
EADS/LV
Mission
Spacecraft
Bus & Motor
Unknown
Mass
Unknown
Launch date (UTC)
1989-01-27 (37 years ago)
Launch vehicle
Unknown
Launch site
French Guiana (FRGUI)
Object type
Payload
Rocket body
Debris
Shape & HBR
Unknown shape, 0.1 m
Radar Cross Section
Medium (>0.1 m² and <1 m²)

Expand to show TLE details & history
Last TLE update: 6 months ago

TLE from 6 months ago
0 ARIANE 2 DEB
1 33551U 89006AT  25260.93683366 -.00000123  00000-0  00000-0 0  9996
2 33551   8.4120 199.0593 6870791 211.7634 359.7714  2.20986347 92000
Epoch: 2025-09-17T22:29Z
TLE epoch observation values (Epoch: 2025-09-17T22:29:02.428Z)
Latitude
-4.36682°
Longitude
75.52551°
Altitude
1,428.161 km
Speed
9.279 km/s
True Right ascension
03h 19m 33s
True Declination
-4° 20' 35"
Sunlit
Object was in full shadow at epoch
Visualization orbit readout
Latitude
Unknown
Longitude
Unknown
Altitude
Unknown
Speed
Unknown
Apparent Right ascension
Unknown
Apparent Declination
Unknown
Sunlit
N/A
Visualization observer readout
Local Sidereal Time
06:40:53
Azimuth
Unknown
Elevation
Unknown
Doppler factor
Unknown
Orbital elements
Apogee altitude
35,633.711 km
Perigee altitude
1,414.257 km
Semi-major axis
24,902.121 km
Eccentricity
0.68708
Inclination
8.412°
RAAN
199.0593°
Arg. of periapsis
211.7634°
True anomaly
358.30394°
Mean anomaly
359.7714°
Eccentric anomaly
359.26951°
Mean motion
0.55232 °/min
Orbital period
651.8 mins
BSTAR
0
Loading maneuver chart data...
Computing Atmospheric mass density...
Loading historical data...
Loading historical data...
Loading historical data...
Loading historical data...
Loading historical data...
Loading historical data...
Loading historical data...

Documentation

Showing up to 5 results
|